CZ-4B DEB, 43660

Orbit data source: Space-Track

CZ-4B DEB, 43660 is space debris in SSO originally from a launch on Wed, 24 Oct 2018 UTC launched from the Taiyaun Space Center, China (TSC). Debris objects in space refer to the collection of defunct objects orbiting the Earth. Examples of debris include non-operational satellites, rocket bodies, and fragments generated from explosions, collisions, or faulty payload assembly.

Loading next visibility...
Identifier
43660, 2018-081D
Orbit
SSO
Country
Flag of CNCN / PRC
Related business
Manufacturer
SAST
Mission
Spacecraft
Bus & Motor
Unknown
Mass
Unknown
Launch date (UTC)
2018-10-24 (7 years ago)
Launch vehicle
Unknown
Launch site
Taiyaun Space Center, China (TSC)
Object type
Payload
Rocket body
Debris
Shape & HBR
Unknown shape, 0.1 m
Radar Cross Section
Small (<0.1 m²)

Expand to show TLE details & history
Last TLE update: 1 day ago

TLE from 1 day ago
0 CZ-4B DEB
1 43660U 18081D   25309.35282854  .00000184  00000-0  18307-3 0  9998
2 43660  99.1339 336.9642 0012470 242.7278 117.2612 13.90524678356801
Epoch: 2025-11-05T08:28Z
TLE epoch observation values (Epoch: 2025-11-05T08:28:04.385Z)
Latitude
0.00005°
Longitude
165.1192°
Altitude
933.835 km
Speed
7.383 km/s
True Right ascension
22h 27m 51s
True Declination
0° 00' 00"
Sunlit
Object was in daylight at epoch
Visualization orbit readout
Latitude
Unknown
Longitude
Unknown
Altitude
Unknown
Speed
Unknown
Apparent Right ascension
Unknown
Apparent Declination
Unknown
Sunlit
N/A
Visualization observer readout
Local Sidereal Time
05:31:09
Azimuth
Unknown
Elevation
Unknown
Doppler factor
Unknown
Orbital elements
Apogee altitude
933.117 km
Perigee altitude
914.906 km
Semi-major axis
7,302.148 km
Eccentricity
0.00125
Inclination
99.1339°
RAAN
336.9642°
Arg. of periapsis
242.7278°
True anomaly
117.38813°
Mean anomaly
117.2612°
Eccentric anomaly
117.32468°
Mean motion
3.4783 °/min
Orbital period
103.5 mins
BSTAR
0.00018307
Loading maneuver chart data...
Computing Atmospheric mass density...
Loading historical data...
Loading historical data...
Loading historical data...
Loading historical data...
Loading historical data...
Loading historical data...
Loading historical data...

Documentation

Showing up to 5 results
|